| time (UTC) | temp C | wind direction | speed KPH | gust KPH | rain 1hr cm | rain 24hr cm | rain mn cm | humidity % | barometer mb |
| 20260903235105 | 18 | 288 | 11.3 | 24.1 | 0.00 | 0.00 | 0.00 | 90 | 1010.0 |
| 20260903234054 | 18 | 263 | 11.3 | 24.1 | 0.00 | 0.00 | 0.00 | 90 | 1010.3 |
| 20260903233022 | 18 | 250 | 4.8 | 22.5 | 0.00 | 0.00 | 0.00 | 90 | 1010.5 |
| 20260903231948 | 18 | 258 | 3.2 | 22.5 | 0.00 | 0.00 | 0.00 | 90 | 1010.5 |
| 20260903224719 | 18 | 159 | 1.6 | 14.5 | 0.00 | 0.00 | 0.00 | 88 | 1011.7 |
| 20260903223719 | 18 | 232 | 3.2 | 19.3 | 0.00 | 0.00 | 0.00 | 87 | 1011.9 |
| 20260903222737 | 18 | 76 | 4.8 | 19.3 | 0.00 | 0.00 | 0.00 | 86 | 1012.2 |
| 20260903221756 | 18 | 252 | 1.6 | 9.7 | 0.00 | 0.00 | 0.00 | 85 | 1012.3 |
| 20260903220723 | 18 | 198 | 0.0 | 9.7 | 0.00 | 0.00 | 0.00 | 83 | 1012.5 |
| 20260903215653 | 18 | 232 | 0.0 | 3.2 | 0.00 | 0.00 | 0.00 | 82 | 1012.6 |
| 20260903214657 | 18 | 342 | 0.0 | 4.8 | 0.00 | 0.00 | 0.00 | 81 | 1012.8 |
| 20260903212620 | 18 | 136 | 1.6 | 9.7 | 0.00 | 0.00 | 0.00 | 80 | 1012.9 |
| 20260903211610 | 18 | 317 | 1.6 | 1.6 | 0.00 | 0.00 | 0.00 | 80 | 1013.3 |
| 20260903210634 | 18 | 294 | 3.2 | 12.9 | 0.00 | 0.00 | 0.00 | 80 | 1013.7 |
| 20260903205614 | 18 | 279 | 3.2 | 11.3 | 0.00 | 0.00 | 0.00 | 79 | 1013.7 |
| 20260903204554 | 18 | 289 | 3.2 | 11.3 | 0.00 | 0.00 | 0.00 | 79 | 1013.9 |
| 20260903203545 | 18 | 240 | 4.8 | 12.9 | 0.00 | 0.00 | 0.00 | 79 | 1014.1 |
| 20260903202538 | 18 | 282 | 3.2 | 16.1 | 0.00 | 0.00 | 0.00 | 78 | 1014.2 |
| 20260903201527 | 18 | 276 | 4.8 | 16.1 | 0.00 | 0.00 | 0.00 | 79 | 1013.9 |
| 20260903200535 | 18 | 309 | 4.8 | 14.5 | 0.00 | 0.00 | 0.00 | 79 | 1013.9 |
| 20260903194426 | 18 | 193 | 3.2 | 11.3 | 0.00 | 0.00 | 0.00 | 79 | 1013.9 |
| 20260903193430 | 18 | 268 | 3.2 | 9.7 | 0.00 | 0.00 | 0.00 | 78 | 1014.2 |
| 20260903192436 | 18 | 283 | 3.2 | 22.5 | 0.00 | 0.00 | 0.00 | 78 | 1014.3 |
| 20260903191453 | 19 | 283 | 6.4 | 22.5 | 0.00 | 0.00 | 0.00 | 78 | 1014.4 |
| 20260903190513 | 19 | 212 | 6.4 | 22.5 | 0.00 | 0.00 | 0.00 | 79 | 1014.5 |
| 20260903185535 | 19 | 136 | 6.4 | 19.3 | 0.00 | 0.00 | 0.00 | 79 | 1014.6 |
| 20260903184517 | 20 | 219 | 4.8 | 14.5 | 0.00 | 0.00 | 0.00 | 80 | 1014.4 |
| 20260903183540 | 20 | 310 | 6.4 | 22.5 | 0.00 | 0.00 | 0.00 | 79 | 1014.2 |
| 20260903182509 | 20 | 313 | 6.4 | 22.5 | 0.00 | 0.00 | 0.00 | 79 | 1014.2 |
| 20260903181531 | 20 | 165 | 6.4 | 19.3 | 0.00 | 0.00 | 0.00 | 77 | 1014.6 |
| 20260903180540 | 20 | 246 | 4.8 | 16.1 | 0.00 | 0.00 | 0.00 | 76 | 1014.8 |
| 20260903175533 | 21 | 206 | 4.8 | 16.1 | 0.00 | 0.00 | 0.00 | 75 | 1014.6 |
| 20260903174514 | 21 | 251 | 6.4 | 24.1 | 0.00 | 0.00 | 0.00 | 74 | 1014.6 |
| 20260903173512 | 21 | 198 | 6.4 | 24.1 | 0.00 | 0.00 | 0.00 | 73 | 1014.6 |
| 20260903172452 | 21 | 225 | 6.4 | 25.7 | 0.00 | 0.00 | 0.00 | 72 | 1014.6 |
| 20260903171432 | 21 | 284 | 9.7 | 25.7 | 0.00 | 0.00 | 0.00 | 72 | 1014.5 |
| 20260903165346 | 21 | 284 | 11.3 | 25.7 | 0.00 | 0.00 | 0.00 | 69 | 1014.9 |
| 20260903164329 | 21 | 299 | 8.0 | 20.9 | 0.00 | 0.00 | 0.00 | 67 | 1015.1 |
| 20260903163316 | 22 | 258 | 6.4 | 22.5 | 0.00 | 0.00 | 0.00 | 67 | 1015.1 |
| 20260903162338 | 22 | 107 | 8.0 | 24.1 | 0.00 | 0.00 | 0.00 | 66 | 1015.1 |
| 20260903161346 | 23 | 256 | 6.4 | 24.1 | 0.00 | 0.00 | 0.00 | 64 | 1015.0 |
| 20260903160341 | 22 | 138 | 6.4 | 17.7 | 0.00 | 0.00 | 0.00 | 64 | 1014.9 |
| 20260903155308 | 22 | 226 | 8.0 | 25.7 | 0.00 | 0.00 | 0.00 | 66 | 1014.9 |
| 20260903154247 | 22 | 242 | 9.7 | 25.7 | 0.00 | 0.00 | 0.00 | 66 | 1014.9 |
| 20260903153214 | 23 | 288 | 8.0 | 19.3 | 0.00 | 0.00 | 0.00 | 65 | 1014.8 |
| 20260903151012 | 23 | 310 | 8.0 | 27.4 | 0.00 | 0.00 | 0.00 | 65 | 1014.7 |
| 20260903144840 | 22 | 193 | 11.3 | 29.0 | 0.00 | 0.00 | 0.00 | 66 | 1015.3 |
| 20260903143856 | 23 | 292 | 9.7 | 29.0 | 0.00 | 0.00 | 0.00 | 64 | 1015.2 |
| 20260903142848 | 23 | 272 | 8.0 | 25.7 | 0.00 | 0.00 | 0.00 | 64 | 1015.0 |
| 20260903141833 | 24 | 183 | 4.8 | 25.7 | 0.00 | 0.00 | 0.00 | 64 | 1015.4 |
| 20260903140833 | 24 | 346 | 6.4 | 22.5 | 0.00 | 0.00 | 0.00 | 65 | 1015.2 |
| 20260903135836 | 23 | 286 | 3.2 | 12.9 | 0.00 | 0.00 | 0.00 | 67 | 1015.3 |
| 20260903134826 | 23 | 259 | 3.2 | 14.5 | 0.00 | 0.00 | 0.00 | 67 | 1015.3 |
| 20260903130332 | 23 | 221 | 6.4 | 16.1 | 0.00 | 0.03 | 0.00 | 64 | 1015.5 |
| 20260903125315 | 23 | 161 | 4.8 | 19.3 | 0.00 | 0.03 | 0.00 | 65 | 1015.7 |
| 20260903124304 | 23 | 238 | 6.4 | 19.3 | 0.00 | 0.03 | 0.00 | 64 | 1015.7 |
| 20260903122150 | 22 | 183 | 4.8 | 25.7 | 0.00 | 0.03 | 0.00 | 67 | 1015.6 |
| 20260903120011 | 22 | 291 | 6.4 | 17.7 | 0.00 | 0.05 | 0.00 | 69 | 1015.8 |
| 20260903115029 | 22 | 336 | 8.0 | 27.4 | 0.00 | 0.05 | 0.00 | 68 | 1015.7 |
| 20260903114018 | 22 | 238 | 8.0 | 27.4 | 0.00 | 0.05 | 0.00 | 69 | 1015.9 |
| 20260903113034 | 22 | 296 | 6.4 | 22.5 | 0.00 | 0.08 | 0.00 | 70 | 1015.9 |
| 20260903112010 | 22 | 234 | 4.8 | 16.1 | 0.00 | 0.08 | 0.00 | 72 | 1016.0 |
| 20260903111032 | 22 | 128 | 6.4 | 22.5 | 0.00 | 0.08 | 0.00 | 73 | 1016.1 |
| 20260903104948 | 21 | 192 | 4.8 | 17.7 | 0.00 | 0.08 | 0.00 | 75 | 1016.3 |
| 20260903103929 | 21 | 275 | 4.8 | 14.5 | 0.00 | 0.08 | 0.00 | 75 | 1016.2 |
| 20260903102911 | 21 | 261 | 4.8 | 19.3 | 0.00 | 0.08 | 0.00 | 76 | 1016.0 |
| 20260903101856 | 21 | 219 | 6.4 | 19.3 | 0.00 | 0.08 | 0.00 | 77 | 1016.1 |
| 20260903100914 | 21 | 295 | 3.2 | 14.5 | 0.00 | 0.08 | 0.00 | 77 | 1016.1 |
| 20260903094823 | 20 | 267 | 3.2 | 16.1 | 0.00 | 0.08 | 0.00 | 80 | 1016.3 |
| 20260903093824 | 20 | 247 | 1.6 | 11.3 | 0.00 | 0.08 | 0.00 | 81 | 1016.3 |
| 20260903092845 | 20 | 215 | 3.2 | 11.3 | 0.00 | 0.08 | 0.00 | 82 | 1016.5 |
| 20260903091820 | 19 | 280 | 1.6 | 11.3 | 0.00 | 0.08 | 0.00 | 82 | 1016.4 |
| 20260903090809 | 19 | 262 | 1.6 | 9.7 | 0.00 | 0.08 | 0.00 | 83 | 1016.4 |
| 20260903085742 | 19 | 219 | 0.0 | 3.2 | 0.00 | 0.08 | 0.00 | 82 | 1016.4 |
| 20260903082435 | 18 | 277 | 4.8 | 14.5 | 0.00 | 0.08 | 0.00 | 84 | 1016.2 |
| 20260903081440 | 18 | 268 | 4.8 | 14.5 | 0.00 | 0.10 | 0.00 | 86 | 1016.2 |
| 20260903074055 | 17 | 278 | 1.6 | 6.4 | 0.00 | 0.10 | 0.00 | 90 | 1016.3 |
| 20260903073051 | 17 | 255 | 0.0 | 6.4 | 0.00 | 0.10 | 0.00 | 90 | 1016.1 |
| 20260903064635 | 16 | 254 | 0.0 | 0.0 | 0.00 | 0.13 | 0.00 | 92 | 1015.6 |
| 20260903063633 | 16 | 125 | 0.0 | 0.0 | 0.00 | 0.13 | 0.00 | 92 | 1015.5 |
| 20260903062610 | 16 | 125 | 0.0 | 0.0 | 0.00 | 0.15 | 0.00 | 92 | 1015.4 |
| 20260903061538 | 16 | 125 | 0.0 | 0.0 | 0.00 | 0.15 | 0.00 | 91 | 1015.4 |
| 20260903060520 | 16 | 125 | 0.0 | 0.0 | 0.00 | 0.18 | 0.00 | 91 | 1015.2 |
| 20260903055446 | 16 | 125 | 0.0 | 3.2 | 0.00 | 0.18 | 0.00 | 90 | 1015.0 |
| 20260903054453 | 16 | 51 | 0.0 | 6.4 | 0.00 | 0.18 | 0.00 | 89 | 1014.9 |
| 20260903053447 | 16 | 213 | 0.0 | 4.8 | 0.00 | 0.18 | 0.00 | 89 | 1014.7 |
| 20260903052417 | 16 | 259 | 3.2 | 8.0 | 0.00 | 0.18 | 0.00 | 89 | 1014.7 |
| 20260903051356 | 16 | 292 | 0.0 | 4.8 | 0.00 | 0.18 | 0.00 | 90 | 1014.8 |
| 20260903043007 | 17 | 39 | 0.0 | 3.2 | 0.00 | 0.18 | 0.00 | 91 | 1014.7 |
| 20260903042028 | 17 | 150 | 0.0 | 3.2 | 0.00 | 0.18 | 0.00 | 91 | 1014.7 |
| 20260903040956 | 17 | 234 | 0.0 | 3.2 | 0.00 | 0.18 | 0.00 | 91 | 1014.7 |
| 20260903035930 | 17 | 94 | 0.0 | 0.0 | 0.00 | 0.18 | 0.00 | 91 | 1014.7 |
| 20260903034857 | 17 | 314 | 0.0 | 0.0 | 0.00 | 0.18 | 0.00 | 91 | 1014.4 |
| 20260903033828 | 17 | 240 | 1.6 | 8.0 | 0.00 | 0.18 | 0.00 | 91 | 1014.5 |
| 20260903032825 | 17 | 231 | 0.0 | 6.4 | 0.00 | 0.18 | 0.00 | 90 | 1014.6 |
| 20260903031834 | 17 | 274 | 0.0 | 0.0 | 0.00 | 0.18 | 0.00 | 90 | 1014.5 |
| 20260903030811 | 17 | 71 | 1.6 | 9.7 | 0.00 | 0.18 | 0.00 | 89 | 1014.4 |
| 20260903025743 | 18 | 304 | 0.0 | 9.7 | 0.00 | 0.18 | 0.00 | 89 | 1014.3 |
| 20260903024728 | 17 | 246 | 0.0 | 6.4 | 0.00 | 0.18 | 0.00 | 88 | 1014.3 |
| 20260903023719 | 17 | 134 | 0.0 | 9.7 | 0.00 | 0.18 | 0.00 | 88 | 1014.3 |
| 20260903022724 | 17 | 93 | 0.0 | 6.4 | 0.00 | 0.18 | 0.00 | 88 | 1014.1 |
| 20260903021705 | 18 | 296 | 0.0 | 9.7 | 0.00 | 0.18 | 0.00 | 88 | 1014.5 |
| 20260903020638 | 18 | 163 | 4.8 | 12.9 | 0.00 | 0.18 | 0.00 | 89 | 1014.5 |
| 20260903015626 | 18 | 279 | 1.6 | 16.1 | 0.00 | 0.18 | 0.00 | 89 | 1014.2 |
| 20260903014640 | 17 | 294 | 3.2 | 16.1 | 0.00 | 0.18 | 0.00 | 90 | 1014.5 |
| 20260903013615 | 17 | 157 | 1.6 | 11.3 | 0.00 | 0.18 | 0.00 | 91 | 1014.4 |
| 20260903012617 | 17 | 246 | 0.0 | 11.3 | 0.00 | 0.18 | 0.00 | 91 | 1014.4 |
| 20260903011623 | 17 | 223 | 1.6 | 4.8 | 0.00 | 0.18 | 0.00 | 91 | 1014.3 |
| 20260903010642 | 17 | 240 | 1.6 | 8.0 | 0.00 | 0.18 | 0.00 | 91 | 1014.2 |
| 20260903004529 | 17 | 258 | 3.2 | 9.7 | 0.00 | 0.18 | 0.00 | 92 | 1014.5 |
| 20260903003502 | 18 | 234 | 8.0 | 19.3 | 0.00 | 0.18 | 0.00 | 92 | 1014.5 |
| 20260903001319 | 18 | 284 | 4.8 | 17.7 | 0.00 | 0.18 | 0.00 | 91 | 1014.4 |
| 20260903000310 | 18 | 253 | 8.0 | 19.3 | 0.00 | 0.18 | 0.00 | 91 | 1014.4 |